Location: Santa Clara
(37.3540°N, 121.9540°W)
Time: 22:15:53
(UTC-08:00)

N. Korean satellite - Visible Passes

Search period start: 24 January 2022 00:00
Search period end: 03 February 2022 00:00
Orbit: 447 x 491 km, 97.3° (Epoch: 24 January)

Date Brightness Start Highest point End Pass type
(mag) Time Alt. Az. Time Alt. Az. Time Alt. Az.
24 Jan 8.8 05:05:10 10° NNE 05:12:31 - S 05:06:15 18° NNE visible
25 Jan 9.6 04:36:38 10° NE 04:43:01 - SSE 04:37:10 13° NE visible
25 Jan 8.2 06:09:44 10° NNW 06:17:04 - SW 06:11:13 17° NW visible
26 Jan 7.5 05:39:55 10° N 05:47:33 - SSW 05:42:09 32° NNW visible
27 Jan 7.7 05:10:40 10° NNE 05:18:01 - S 05:13:06 38° NE visible
28 Jan 9.0 04:41:56 10° NE 04:48:26 - SSE 04:44:02 22° ENE visible
28 Jan 8.0 06:15:27 10° NNW 06:17:54 17° WNW 06:18:06 17° WNW visible
29 Jan 10.0 04:14:52 10° E 04:18:50 - SE 04:15:01 10° E visible
29 Jan 6.9 05:45:27 10° N 05:48:52 40° WNW 05:49:06 39° W visible
30 Jan 6.6 05:16:03 10° NNE 05:19:41 77° ESE 05:23:16 10° S visible
31 Jan 8.5 04:47:10 10° NE 04:50:22 29° E 04:53:32 10° SSE visible
31 Jan 8.2 06:21:07 10° NNW 06:23:13 15° WNW 06:25:18 10° WSW visible
01 Feb 9.8 04:19:23 10° ENE 04:20:56 12° E 04:22:28 10° ESE visible
01 Feb 7.2 05:50:52 10° N 05:54:10 33° WNW 05:57:26 10° SW visible
02 Feb 6.4 05:21:20 10° N 05:24:59 89° WNW 05:28:33 10° SSW visible
